{"data":{"norad_id":55767,"epoch":"2026-05-25T02:19:40.895040Z","epoch_age_seconds":77346,"freshness":"FRESH","line1":"1 55767U 23028AC  26145.09700110  .00001314  00000+0  11786-3 0  9995","line2":"2 55767  69.9998  31.9919 0002819 272.2658  87.8179 14.98342531177955","mean_motion":14.98342531,"eccentricity":0.0002819,"inclination_deg":69.9998,"raan_deg":31.9919,"arg_perigee_deg":272.2658,"mean_anomaly_deg":87.8179,"bstar":0.00011786,"rev_number":17795,"period_min":96.106195359678,"perigee_km":570.05789167857,"apogee_km":573.97638858278,"semimajor_km":6950.1541401307,"source":"CELESTRAK","updated_at":"2026-05-25T13:38:17.882964Z"}}